Weather History for LIVE - December, 2013

Change the Weather History Date:

Saturday, December 21, 2013

  Actual Average Record
Temperature  
Mean Temperature 32 °F -  
Max Temperature 41 °F 33 °F 41 °F (2008)
Min Temperature 24 °F 18 °F 5 °F (2004)
Degree Days  
Heating Degree Days 32    
Moisture  
Dew Point 27 °F    
Average Humidity 84    
Maximum Humidity 93    
Minimum Humidity 61    
Precipitation  
Precipitation 0.00 in - - ()
Sea Level Pressure  
Sea Level Pressure 30.46 in    
Wind  
Wind Speed 4 mph ()    
Max Wind Speed 8 mph    
Max Gust Speed -    
Visibility 6.2 miles    
Events      
Averages and records for this station are not official NWS values.
T = Trace of Precipitation, MM = Missing Value Source: Averaged Metar Reports

Daily Weather History Graph

Daily Weather History Graph

Search for Another Location

Airport or City:

Trip Planner

Search our weather history database for the weather conditions in past years. The results will help you decide how hot, cold, wet, or windy it might be!

Date:

Astronomy

Dec. 21, 2013 Rise Set
Actual Time 8:00 AM CET 4:32 PM CET
Civil Twilight 7:24 AM CET 5:07 PM CET
Nautical Twilight 6:46 AM CET 5:46 PM CET
Astronomical Twilight 6:09 AM CET 6:23 PM CET
Moon 8:46 PM CET (12/21) 10:05 AM CET (12/21)
Length of Visible Light 9h 42m
Length of Day
8h 31m
Waning Gibbous, 86% of the Moon is Illuminated
Dec 21
Waning Gibbous
Dec 25
Last Quarter
Jan 1
New
Jan 8
First Quarter
Jan 16
Full

Hourly Weather History & Observations

Time (CET) Temp. Windchill Dew Point Humidity Pressure Visibility Wind Dir Wind Speed Gust Speed Precip Events Conditions
12:55 AM 32.0 °F 28.7 °F 28.4 °F 87% 30.42 in 6.2 mi North 3.5 mph - N/A   Mostly Cloudy
1:55 AM 30.2 °F 26.7 °F 28.4 °F 93% 30.42 in 6.2 mi NNE 3.5 mph - N/A   Mostly Cloudy
2:55 AM 28.4 °F 24.6 °F 26.6 °F 93% 30.45 in 6.2 mi North 3.5 mph - N/A   Scattered Clouds
3:55 AM 28.4 °F 24.6 °F 24.8 °F 86% 30.45 in - North 3.5 mph - N/A   Clear
4:55 AM 26.6 °F 20.0 °F 23.0 °F 86% 30.48 in - North 5.8 mph - N/A   Clear
5:55 AM 24.8 °F 17.9 °F 23.0 °F 93% 30.48 in - North 5.8 mph - N/A   Clear
6:55 AM 26.6 °F 22.6 °F 23.0 °F 86% 30.48 in - North 3.5 mph - N/A   Clear
7:55 AM 26.6 °F - 23.0 °F 86% 30.48 in - Variable 1.2 mph - N/A   Clear
8:55 AM 24.8 °F 20.5 °F 23.0 °F 93% 30.48 in - North 3.5 mph - N/A   Clear
9:55 AM 26.6 °F 21.2 °F 24.8 °F 93% 30.48 in - North 4.6 mph - N/A   Clear
10:55 AM 35.6 °F - 26.6 °F 70% 30.48 in - Variable 1.2 mph - N/A   Clear
11:55 AM 37.4 °F 34.9 °F 26.6 °F 65% 30.48 in - South 3.5 mph - N/A   Clear
12:55 PM 39.2 °F 35.0 °F 26.6 °F 61% 30.48 in 6.2 mi South 5.8 mph - N/A   Partly Cloudy
1:55 PM 41.0 °F 38.0 °F 28.4 °F 61% 30.48 in 6.2 mi SSW 4.6 mph - N/A   Scattered Clouds
2:55 PM 37.4 °F 34.9 °F 28.4 °F 70% 30.45 in 6.2 mi SSW 3.5 mph - N/A   Scattered Clouds
3:55 PM 33.8 °F 29.6 °F 28.4 °F 81% 30.45 in 6.2 mi SSW 4.6 mph - N/A   Scattered Clouds
4:55 PM 32.0 °F 28.7 °F 28.4 °F 87% 30.45 in 6.2 mi SSW 3.5 mph - N/A   Mostly Cloudy
5:55 PM 32.0 °F 28.7 °F 28.4 °F 87% 30.45 in 6.2 mi South 3.5 mph - N/A   Mostly Cloudy
6:55 PM 32.0 °F 26.4 °F 30.2 °F 93% 30.45 in 6.2 mi SSW 5.8 mph - N/A   Scattered Clouds
7:55 PM 32.0 °F 24.8 °F 30.2 °F 93% 30.45 in 6.2 mi South 8.1 mph - N/A   Scattered Clouds
8:55 PM 32.0 °F 24.8 °F 30.2 °F 93% 30.45 in 6.2 mi SSW 8.1 mph - N/A   Scattered Clouds
9:55 PM 32.0 °F 26.4 °F 30.2 °F 93% 30.45 in 6.2 mi South 5.8 mph - N/A   Scattered Clouds
10:55 PM 32.0 °F 25.6 °F 28.4 °F 87% 30.45 in 6.2 mi South 6.9 mph - N/A   Mostly Cloudy
11:55 PM 32.0 °F 26.4 °F 28.4 °F 87% 30.45 in 6.2 mi SSW 5.8 mph - N/A   Mostly Cloudy